TimeMST,TemperatureF,Dew PointF,Humidity,Sea Level PressureIn,VisibilityMPH,Wind Direction,Wind SpeedMPH,Gust SpeedMPH,PrecipitationIn,Events,Conditions,WindDirDegrees,DateUTC
12:53 AM,33.1,8.1,35,30.09,10.0,West,16.1,28.8,N/A,,Clear,260,2013-01-19 07:53:00
1:53 AM,32.0,8.1,37,30.12,10.0,SW,17.3,24.2,N/A,,Clear,220,2013-01-19 08:53:00
2:53 AM,30.9,8.1,38,30.14,10.0,SW,11.5,18.4,N/A,,Clear,230,2013-01-19 09:53:00
3:53 AM,30.0,7.0,38,30.16,10.0,SW,15.0,21.9,N/A,,Clear,220,2013-01-19 10:53:00
4:53 AM,30.0,7.0,38,30.18,10.0,SW,13.8,19.6,N/A,,Clear,220,2013-01-19 11:53:00
5:53 AM,28.0,7.0,41,30.21,10.0,SW,13.8,-,N/A,,Clear,220,2013-01-19 12:53:00
6:53 AM,27.0,6.1,41,30.23,10.0,SW,16.1,-,N/A,,Clear,220,2013-01-19 13:53:00
7:53 AM,28.9,6.1,38,30.25,10.0,SW,17.3,-,N/A,,Clear,230,2013-01-19 14:53:00
8:53 AM,32.0,6.1,34,30.27,10.0,SW,16.1,-,N/A,,Clear,230,2013-01-19 15:53:00
9:53 AM,36.0,6.1,29,30.27,10.0,SW,21.9,27.6,N/A,,Clear,220,2013-01-19 16:53:00
10:53 AM,37.0,7.0,29,30.26,10.0,SSW,24.2,33.4,N/A,,Clear,210,2013-01-19 17:53:00
11:53 AM,41.0,7.0,25,30.22,10.0,SSW,24.2,34.5,N/A,,Clear,210,2013-01-19 18:53:00
12:53 PM,44.1,5.0,20,30.19,10.0,SSW,25.3,33.4,N/A,,Clear,210,2013-01-19 19:53:00
1:53 PM,44.1,7.0,22,30.18,10.0,SSW,23.0,32.2,N/A,,Clear,210,2013-01-19 20:53:00
2:53 PM,43.0,7.0,23,30.18,10.0,SSW,20.7,28.8,N/A,,Clear,210,2013-01-19 21:53:00
3:53 PM,39.9,9.0,28,30.22,10.0,SSW,15.0,-,N/A,,Clear,210,2013-01-19 22:53:00
4:53 PM,36.0,10.0,34,30.24,10.0,SW,12.7,-,N/A,,Clear,230,2013-01-19 23:53:00
5:53 PM,33.1,10.0,38,30.25,10.0,SSW,15.0,-,N/A,,Clear,210,2013-01-20 00:53:00
6:53 PM,30.0,10.9,45,30.26,10.0,SW,10.4,-,N/A,,Clear,220,2013-01-20 01:53:00
7:53 PM,30.0,10.9,45,30.24,10.0,SSW,11.5,-,N/A,,Clear,210,2013-01-20 02:53:00
8:53 PM,32.0,10.9,42,30.22,10.0,SW,11.5,-,N/A,,Clear,220,2013-01-20 03:53:00
9:53 PM,30.9,10.0,42,30.19,10.0,SW,18.4,-,N/A,,Clear,220,2013-01-20 04:53:00
10:53 PM,32.0,9.0,38,30.18,10.0,SW,12.7,-,N/A,,Clear,230,2013-01-20 05:53:00
11:53 PM,30.0,10.0,43,30.17,10.0,WSW,15.0,-,N/A,,Clear,240,2013-01-20 06:53:00